ANA180 RJAA-MPTO

Flight info

Callsign ANA180
Flight time N/A
Altitude 31000
Route GULBO Y808 NOLAX Y812 ADNAP OTR5 KALNA 44E60 DCT 47E70 DCT 48E80/N0487F330 DCT 49N70 DCT 49N60 DCT 47N50 DCT 44N40 DCT 41N30/N0479F350 DCT TRYSH DCT ENI DCT AVE J6 LANDO J50 PDZ J93 PPE UT152 CDR/N0480F370 UT152 ASOKU UM419 ANSON DCT AROVI VUMAN2
Aircraft B77W/H-SDE1E2E3FGHIJ2J3J4J5M1RWXYZ/LB1D1

Departure

Time 2026-05-04 04:01
Airport Narita International Airport (RJAA)

Arrival

Time N/A
Airport Tocumen International Airport (MPTO)
Time Latitude Longitude Altitude Speed Heading
2026-05-04 03:00 35.76129 140.38410 149 ft 0 kts 59°
2026-05-04 03:47 35.76118 140.38390 149 ft 4 kts 52°
2026-05-04 03:47 35.76100 140.38365 149 ft 4 kts 38°
2026-05-04 03:47 35.76078 140.38348 149 ft 4 kts 18°
2026-05-04 03:48 35.76052 140.38343 149 ft 4 kts 354°
2026-05-04 03:48 35.76026 140.38351 149 ft 4 kts 333°
2026-05-04 03:48 35.76019 140.38355 149 ft 0 kts 329°
2026-05-04 03:52 35.76020 140.38355 149 ft 1 kts 329°
2026-05-04 03:52 35.76036 140.38343 149 ft 3 kts 329°
2026-05-04 03:52 35.76055 140.38313 149 ft 7 kts 290°
2026-05-04 03:52 35.76045 140.38260 149 ft 7 kts 238°
2026-05-04 03:53 35.76021 140.38210 149 ft 7 kts 240°
2026-05-04 03:53 35.76000 140.38160 149 ft 7 kts 254°
2026-05-04 03:53 35.76022 140.38112 149 ft 7 kts 318°
2026-05-04 03:53 35.76066 140.38078 149 ft 9 kts 328°
2026-05-04 03:54 35.76128 140.38033 148 ft 12 kts 329°
2026-05-04 03:54 35.76207 140.37975 148 ft 14 kts 329°
2026-05-04 03:54 35.76300 140.37908 148 ft 17 kts 329°
2026-05-04 03:54 35.76399 140.37837 148 ft 17 kts 329°
2026-05-04 03:55 35.76497 140.37767 148 ft 17 kts 329°
2026-05-04 03:55 35.76596 140.37695 148 ft 17 kts 329°
2026-05-04 03:55 35.76695 140.37623 148 ft 16 kts 330°
2026-05-04 03:55 35.76794 140.37552 148 ft 16 kts 330°
2026-05-04 03:56 35.76891 140.37482 148 ft 16 kts 329°
2026-05-04 03:56 35.76989 140.37412 148 ft 16 kts 329°
2026-05-04 03:56 35.77087 140.37341 148 ft 16 kts 329°
2026-05-04 03:56 35.77185 140.37270 147 ft 16 kts 330°
2026-05-04 03:57 35.77279 140.37203 148 ft 13 kts 329°
2026-05-04 03:57 35.77345 140.37154 148 ft 9 kts 330°
2026-05-04 03:57 35.77398 140.37116 148 ft 8 kts 329°
2026-05-04 03:57 35.77449 140.37080 148 ft 8 kts 329°
2026-05-04 03:58 35.77486 140.36969 148 ft 8 kts 245°
2026-05-04 03:58 35.77459 140.36909 148 ft 8 kts 240°
2026-05-04 03:58 35.77434 140.36859 148 ft 3 kts 228°
2026-05-04 03:59 35.77414 140.36859 148 ft 3 kts 159°
2026-05-04 03:59 35.77396 140.36867 148 ft 1 kts 159°
2026-05-04 03:59 35.77394 140.36868 148 ft 1 kts 159°
2026-05-04 03:59 35.77383 140.36874 148 ft 0 kts 155°
2026-05-04 04:00 35.77371 140.36881 147 ft 15 kts 154°
2026-05-04 04:00 35.77058 140.37103 146 ft 89 kts 150°
2026-05-04 04:00 35.76320 140.37636 148 ft 155 kts 149°
2026-05-04 04:00 35.75235 140.38422 148 ft 202 kts 150°
2026-05-04 04:01 35.73976 140.39336 518 ft 206 kts 158°
2026-05-04 04:01 35.72722 140.40210 1236 ft 213 kts 157°
2026-05-04 04:01 35.71401 140.41151 2062 ft 228 kts 160°
2026-05-04 04:01 35.69985 140.42190 2921 ft 244 kts 161°
2026-05-04 04:02 35.68454 140.43281 3430 ft 262 kts 159°
2026-05-04 04:02 35.66837 140.44444 4062 ft 275 kts 158°
2026-05-04 04:02 35.65164 140.45651 4633 ft 282 kts 158°
2026-05-04 04:02 35.63464 140.46884 5257 ft 285 kts 157°
2026-05-04 04:03 35.61750 140.48125 5919 ft 288 kts 157°
2026-05-04 04:03 35.60013 140.49380 6494 ft 291 kts 158°
2026-05-04 04:03 35.58258 140.50647 7074 ft 294 kts 159°
2026-05-04 04:03 35.56504 140.51910 7632 ft 297 kts 161°
2026-05-04 04:04 35.54713 140.53196 8251 ft 299 kts 161°
2026-05-04 04:04 35.52913 140.54487 8894 ft 300 kts 162°
2026-05-04 04:04 35.51102 140.55786 9495 ft 303 kts 162°
2026-05-04 04:04 35.49278 140.57095 10070 ft 304 kts 162°
2026-05-04 04:05 35.47435 140.58412 10492 ft 314 kts 162°
2026-05-04 04:05 35.45482 140.59795 10613 ft 333 kts 162°
2026-05-04 04:05 35.43431 140.61291 10748 ft 354 kts 156°
2026-05-04 04:05 35.41601 140.63536 10823 ft 392 kts 135°
2026-05-04 04:06 35.40056 140.66393 11060 ft 408 kts 132°
2026-05-04 04:06 35.38493 140.69342 11521 ft 416 kts 132°
2026-05-04 04:06 35.36896 140.72320 12138 ft 420 kts 133°
2026-05-04 04:06 35.35274 140.75304 12797 ft 421 kts 134°
2026-05-04 04:07 35.33636 140.78280 13431 ft 423 kts 134°
2026-05-04 04:07 35.31976 140.81267 13981 ft 426 kts 134°
2026-05-04 04:07 35.30294 140.84279 14505 ft 429 kts 135°
2026-05-04 04:07 35.28596 140.87317 15013 ft 433 kts 135°
2026-05-04 04:08 35.26910 140.90334 15542 ft 437 kts 134°
2026-05-04 04:08 35.25192 140.93408 16083 ft 439 kts 135°
2026-05-04 04:08 35.23462 140.96499 16642 ft 441 kts 134°
2026-05-04 04:08 35.22002 140.99870 16971 ft 465 kts 116°
2026-05-04 04:09 35.21516 141.03888 17328 ft 491 kts 93°
2026-05-04 04:09 35.22154 141.08043 17805 ft 504 kts 72°
2026-05-04 04:09 35.23500 141.12000 18166 ft 507 kts 69°
2026-05-04 04:09 35.24897 141.15985 18501 ft 512 kts 69°
2026-05-04 04:10 35.26283 141.20018 18958 ft 514 kts 69°
2026-05-04 04:10 35.27643 141.24067 19402 ft 516 kts 70°
2026-05-04 04:10 35.28973 141.28105 19832 ft 518 kts 70°